FW8253 Weather Reports


Display with metric or nautical units.
time (UTC)temp
F
wind
direction
speed
MPH
gust
MPH
rain 1hr
in
rain 24hr
in
rain mn
in
humidity
%
barometer
mb
20260510191740 85 241 0.0 0.0 0.00 0.00 0.00 58 1016.4
20260510191236 85 239 0.0 0.0 0.00 0.00 0.00 58 1016.2
20260510190734 87 267 0.0 0.0 0.00 0.00 0.00 53 1016.2
20260510190231 87 227 0.0 0.0 0.00 0.00 0.00 48 1016.7
20260510185727 87 250 0.0 0.0 0.00 0.00 0.00 54 1016.5
20260510185226 86 241 0.0 0.0 0.00 0.00 0.00 54 1016.4
20260510184722 86 227 0.0 0.0 0.00 0.00 0.00 51 1016.2
20260510184219 86 260 0.0 0.0 0.00 0.00 0.00 51 1016.5
20260510183714 88 278 0.0 0.0 0.00 0.00 0.00 51 1016.6
20260510183208 87 261 0.0 0.0 0.00 0.00 0.00 53 1016.6
20260510182706 85 241 0.0 0.0 0.00 0.00 0.00 55 1016.6
20260510182201 86 91 0.0 0.0 0.00 0.00 0.00 53 1016.6
20260510181658 86 264 0.0 0.0 0.00 0.00 0.00 53 1016.9
20260510181155 86 235 0.0 0.0 0.00 0.00 0.00 56 1016.8
20260510180651 87 146 0.0 0.0 0.00 0.00 0.00 54 1017.0
20260510180149 87 308 0.0 0.0 0.00 0.00 0.00 52 1016.8
20260510175645 85 262 0.0 0.0 0.00 0.00 0.00 54 1017.0
20260510175141 85 300 0.0 0.0 0.00 0.00 0.00 53 1017.0
20260510174638 85 238 0.0 0.0 0.00 0.00 0.00 56 1017.2
20260510174136 86 184 0.0 0.0 0.00 0.00 0.00 51 1017.4
20260510173631 86 219 0.0 0.0 0.00 0.00 0.00 53 1017.3
20260510173127 85 232 0.0 0.0 0.00 0.00 0.00 52 1017.3
20260510172623 86 264 0.0 0.0 0.00 0.00 0.00 53 1017.2
20260510172120 86 159 0.0 0.0 0.00 0.00 0.00 53 1017.6
20260510171616 84 220 0.0 0.0 0.00 0.00 0.00 53 1017.6
20260510171114 84 257 0.0 0.0 0.00 0.00 0.00 52 1017.7
20260510170610 83 146 0.0 0.0 0.00 0.00 0.00 54 1017.6
20260510170107 85 149 0.0 0.0 0.00 0.00 0.00 53 1017.8
20260510165603 85 235 0.0 0.0 0.00 0.00 0.00 53 1017.7
20260510165058 85 253 0.0 0.0 0.00 0.00 0.00 54 1017.8
20260510164556 84 297 0.0 0.0 0.00 0.00 0.00 50 1017.6
20260510164052 83 326 0.0 0.0 0.00 0.00 0.00 53 1017.8
20260510163548 83 252 0.0 0.0 0.00 0.00 0.00 55 1017.7
20260510163044 84 251 0.0 0.0 0.00 0.00 0.00 60 1017.7
20260510162539 83 252 0.0 0.0 0.00 0.00 0.00 62 1017.7
20260510162036 83 153 0.0 0.0 0.00 0.00 0.00 60 1018.2
20260510161532 82 148 0.0 0.0 0.00 0.00 0.00 59 1018.0
20260510161029 82 221 0.0 0.0 0.00 0.00 0.00 61 1017.9
20260510160526 83 251 0.0 0.0 0.00 0.00 0.00 61 1018.0
20260510160025 82 216 0.0 0.0 0.00 0.00 0.00 65 1017.9
20260510155522 81 267 0.0 0.0 0.00 0.00 0.00 63 1017.9
20260510155018 81 249 0.0 0.0 0.00 0.00 0.00 68 1018.0
20260510154515 81 83 0.0 0.0 0.00 0.00 0.00 66 1018.1
20260510154015 80 190 0.0 0.0 0.00 0.00 0.00 67 1018.0
20260510153510 79 201 0.0 0.0 0.00 0.00 0.00 68 1018.0
20260510153007 79 293 0.0 0.0 0.00 0.00 0.00 69 1018.2
20260510152504 79 128 0.0 0.0 0.00 0.00 0.00 69 1017.9
20260510152000 80 154 0.0 0.0 0.00 0.00 0.00 67 1018.1
20260510151458 78 214 0.0 0.0 0.00 0.00 0.00 71 1018.0
20260510150954 79 249 0.0 0.0 0.00 0.00 0.00 70 1017.9
20260510150450 78 259 0.0 0.0 0.00 0.00 0.00 70 1017.9
20260510145946 77 224 0.0 0.0 0.00 0.00 0.00 74 1017.8
20260510145442 77 226 0.0 0.0 0.00 0.00 0.00 75 1018.0
20260510144939 78 37 0.0 0.0 0.00 0.00 0.00 72 1017.9
20260510144436 78 139 0.0 0.0 0.00 0.00 0.00 71 1017.8
20260510143931 78 2 0.0 0.0 0.00 0.00 0.00 73 1017.8
20260510143427 76 144 0.0 0.0 0.00 0.00 0.00 75 1017.7
20260510142924 76 224 0.0 0.0 0.00 0.00 0.00 79 1017.8
20260510142421 76 38 0.0 0.0 0.00 0.00 0.00 77 1017.9
20260510141917 74 170 0.0 0.0 0.00 0.00 0.00 79 1017.7
20260510141414 73 286 0.0 0.0 0.00 0.00 0.00 80 1018.0
20260510140911 74 340 0.0 0.0 0.00 0.00 0.00 80 1017.9
20260510140408 74 212 0.0 0.0 0.00 0.00 0.00 83 1017.7
20260510135901 74 216 0.0 0.0 0.00 0.00 0.00 82 1017.9
20260510135357 75 226 0.0 0.0 0.00 0.00 0.00 82 1018.0
20260510134855 73 222 0.0 0.0 0.00 0.00 0.00 82 1017.8
20260510134351 72 339 0.0 0.0 0.00 0.00 0.00 84 1017.8
20260510133847 72 122 0.0 0.0 0.00 0.00 0.00 85 1017.9
20260510133344 71 216 0.0 0.0 0.00 0.00 0.00 86 1018.1
20260510132839 70 229 0.0 0.0 0.00 0.00 0.00 89 1017.8
20260510132338 70 232 0.0 0.0 0.00 0.00 0.00 90 1017.8
20260510131834 70 215 0.0 0.0 0.00 0.00 0.00 90 1017.9
20260510131332 70 125 0.0 0.0 0.00 0.00 0.00 89 1017.6
20260510130828 68 176 0.0 0.0 0.00 0.00 0.00 93 1017.8
20260510130325 67 323 0.0 0.0 0.00 0.00 0.00 96 1017.8
20260510125821 66 270 0.0 0.0 0.00 0.00 0.00 99 1017.8
20260510125318 65 206 0.0 0.0 0.00 0.00 0.00 99 1017.8
20260510124815 66 216 0.0 0.0 0.00 0.00 0.00 99 1018.0
20260510124312 65 206 0.0 0.0 0.00 0.00 0.00 99 1018.0
20260510123807 65 202 0.0 0.0 0.00 0.00 0.00 99 1017.9
20260510123303 65 245 0.0 0.0 0.00 0.00 0.00 99 1017.7
20260510122759 65 208 0.0 0.0 0.00 0.00 0.00 99 1017.8
20260510122256 65 209 0.0 0.0 0.00 0.00 0.00 99 1017.7
20260510121752 65 216 0.0 0.0 0.00 0.00 0.00 99 1017.7
20260510121250 64 204 0.0 0.0 0.00 0.00 0.00 99 1017.8
20260510120747 64 219 0.0 0.0 0.00 0.00 0.00 99 1017.4
20260510120244 64 17 0.0 0.0 0.00 0.00 0.00 99 1017.4
20260510115739 64 194 0.0 0.0 0.00 0.00 0.00 99 1017.4
20260510115238 64 192 0.0 0.0 0.00 0.00 0.00 99 1017.4
20260510114732 65 192 0.0 0.0 0.00 0.00 0.00 99 1017.3
20260510114230 64 192 0.0 0.0 0.00 0.00 0.00 99 1017.5
20260510113725 64 192 0.0 0.0 0.00 0.00 0.00 99 1017.3
20260510113223 64 192 0.0 0.0 0.00 0.00 0.00 99 1017.2
20260510112718 64 193 0.0 0.0 0.00 0.00 0.00 99 1017.2
20260510112216 64 193 0.0 0.0 0.00 0.00 0.00 99 1017.1
20260510111711 64 193 0.0 0.0 0.00 0.00 0.00 99 1017.2
20260510111209 64 193 0.0 0.0 0.00 0.00 0.00 99 1017.1
20260510110709 64 193 0.0 0.0 0.00 0.00 0.00 99 1017.1
20260510110207 64 193 0.0 0.0 0.00 0.00 0.00 99 1016.9
20260510105706 64 193 0.0 0.0 0.00 0.00 0.00 99 1016.9
20260510105201 64 193 0.0 0.0 0.00 0.00 0.00 99 1016.6
20260510104658 63 194 0.0 0.0 0.00 0.00 0.00 99 1016.7
20260510104155 63 194 0.0 0.0 0.00 0.00 0.00 99 1016.6
20260510103652 63 194 0.0 0.0 0.00 0.00 0.00 99 1016.5
20260510103148 63 193 0.0 0.0 0.00 0.00 0.00 99 1016.5
20260510102648 63 193 0.0 0.0 0.00 0.00 0.00 99 1016.4
20260510102145 63 193 0.0 0.0 0.00 0.00 0.00 99 1016.3
20260510101642 62 193 0.0 0.0 0.00 0.00 0.00 99 1016.2
20260510101141 62 193 0.0 0.0 0.00 0.00 0.00 99 1016.4
20260510100636 62 193 0.0 0.0 0.00 0.00 0.00 99 1016.0
20260510100134 62 193 0.0 0.0 0.00 0.00 0.00 99 1016.0
20260510095629 62 193 0.0 0.0 0.00 0.00 0.00 99 1016.1
20260510095125 62 192 0.0 0.0 0.00 0.00 0.00 99 1016.1
20260510094623 62 195 0.0 0.0 0.00 0.00 0.00 99 1016.1
20260510094119 62 195 0.0 0.0 0.00 0.00 0.00 99 1016.2
20260510093616 62 195 0.0 0.0 0.00 0.00 0.00 99 1016.0
20260510093113 62 195 0.0 0.0 0.00 0.00 0.00 99 1015.8
20260510092609 62 195 0.0 0.0 0.00 0.00 0.00 99 1015.7
20260510092109 62 195 0.0 0.0 0.00 0.00 0.00 99 1015.9
20260510091606 62 195 0.0 0.0 0.00 0.00 0.00 99 1015.7
20260510091102 62 195 0.0 0.0 0.00 0.00 0.00 99 1015.6
20260510090559 62 195 0.0 0.0 0.00 0.00 0.00 99 1015.8
20260510090055 62 195 0.0 0.0 0.00 0.00 0.00 99 1015.9
20260510085550 62 195 0.0 0.0 0.00 0.00 0.00 99 1015.5
20260510085046 62 195 0.0 0.0 0.00 0.00 0.00 99 1015.7
20260510084543 62 195 0.0 0.0 0.00 0.00 0.00 99 1015.3
20260510084040 62 195 0.0 0.0 0.00 0.00 0.00 99 1015.4
20260510083536 62 195 0.0 0.0 0.00 0.00 0.00 99 1015.3
20260510083032 62 195 0.0 0.0 0.00 0.00 0.00 99 1015.2
20260510082529 62 195 0.0 0.0 0.00 0.00 0.00 99 1015.2
20260510082025 62 194 0.0 0.0 0.00 0.00 0.00 99 1015.3
20260510081520 62 195 0.0 0.0 0.00 0.00 0.00 99 1015.3
20260510081016 62 195 0.0 0.0 0.00 0.00 0.00 99 1015.2
20260510080515 62 195 0.0 0.0 0.00 0.00 0.00 99 1015.1
20260510080012 62 194 0.0 0.0 0.00 0.00 0.00 99 1015.1
20260510075510 62 195 0.0 0.0 0.00 0.00 0.00 99 1015.2
20260510075006 62 194 0.0 0.0 0.00 0.00 0.00 99 1015.1
20260510074504 62 195 0.0 0.0 0.00 0.00 0.00 99 1014.8
20260510073959 62 194 0.0 0.0 0.00 0.00 0.00 99 1015.0
20260510073455 62 194 0.0 0.0 0.00 0.00 0.00 99 1014.7
20260510072952 62 194 0.0 0.0 0.00 0.00 0.00 99 1014.7
20260510072449 62 194 0.0 0.0 0.00 0.00 0.00 99 1014.7
20260510071944 62 194 0.0 0.0 0.00 0.00 0.00 99 1014.5
20260510071441 62 194 0.0 0.0 0.00 0.00 0.00 99 1014.3
20260510070939 62 194 0.0 0.0 0.00 0.00 0.00 99 1014.1
20260510070436 62 195 0.0 0.0 0.00 0.00 0.00 99 1014.4
20260510065931 62 194 0.0 0.0 0.00 0.00 0.00 99 1014.5
20260510065429 62 194 0.0 0.0 0.00 0.00 0.00 99 1014.8
20260510064924 62 194 0.0 0.0 0.00 0.00 0.00 99 1014.6
20260510064422 62 194 0.0 0.0 0.00 0.00 0.00 99 1014.8
20260510063919 62 194 0.0 0.0 0.00 0.00 0.00 99 1014.9
20260510063415 62 194 0.0 0.0 0.00 0.00 0.00 99 1014.9
20260510062913 62 194 0.0 0.0 0.00 0.00 0.00 99 1015.1
20260510062408 62 194 0.0 0.0 0.00 0.00 0.00 99 1015.0
20260510061904 63 194 0.0 0.0 0.00 0.00 0.00 99 1015.2
20260510061400 63 194 0.0 0.0 0.00 0.00 0.00 99 1015.0
20260510060856 62 194 0.0 0.0 0.00 0.00 0.00 99 1015.3
20260510060353 62 196 0.0 0.0 0.00 0.00 0.00 99 1015.1
20260510055849 62 196 0.0 0.0 0.00 0.00 0.00 99 1015.0
20260510055350 62 196 0.0 0.0 0.00 0.00 0.00 99 1015.1
20260510054848 62 196 0.0 0.0 0.00 0.00 0.00 99 1015.1
20260510054344 62 196 0.0 0.0 0.00 0.00 0.00 99 1014.8
20260510053839 62 196 0.0 0.0 0.00 0.00 0.00 99 1014.8
20260510053335 63 196 0.0 0.0 0.00 0.00 0.00 99 1014.8
20260510052831 63 196 0.0 0.0 0.00 0.00 0.00 99 1015.0
20260510052327 63 196 0.0 0.0 0.00 0.00 0.00 99 1015.0
20260510051824 63 196 0.0 0.0 0.00 0.00 0.00 99 1014.9
20260510051321 63 196 0.0 0.0 0.00 0.00 0.00 99 1015.0
20260510050818 63 196 0.0 0.0 0.00 0.00 0.00 99 1015.2
20260510050314 63 196 0.0 0.0 0.00 0.00 0.00 99 1015.2
20260510045811 63 196 0.0 0.0 0.00 0.00 0.00 99 1015.4
20260510045308 63 196 0.0 0.0 0.00 0.00 0.00 99 1015.2
20260510044805 63 196 0.0 0.0 0.00 0.00 0.00 99 1015.3
20260510044302 63 196 0.0 0.0 0.00 0.00 0.00 99 1015.3
20260510043758 63 196 0.0 0.0 0.00 0.00 0.00 99 1015.4
20260510043254 63 196 0.0 0.0 0.00 0.00 0.00 99 1015.2
20260510042752 63 196 0.0 0.0 0.00 0.00 0.00 99 1015.3
20260510042247 63 196 0.0 0.0 0.00 0.00 0.00 99 1015.5
20260510041739 63 196 0.0 0.0 0.00 0.00 0.00 99 1015.5
20260510041236 63 196 0.0 0.0 0.00 0.00 0.00 99 1015.5
20260510040733 63 196 0.0 0.0 0.00 0.00 0.00 99 1015.2
20260510040230 63 196 0.0 0.0 0.00 0.00 0.00 99 1015.2
20260510035725 63 196 0.0 0.0 0.00 0.00 0.00 99 1015.1
20260510035221 63 196 0.0 0.0 0.00 0.00 0.00 99 1015.2
20260510034717 64 196 0.0 0.0 0.00 0.00 0.00 99 1015.2
20260510034215 64 196 0.0 0.0 0.00 0.00 0.00 99 1015.4
20260510033711 64 195 0.0 0.0 0.00 0.00 0.00 99 1014.9
20260510033209 63 207 0.0 0.0 0.00 0.00 0.00 99 1015.2
20260510032705 64 206 0.0 0.0 0.00 0.00 0.00 99 1014.9
20260510032201 63 207 0.0 0.0 0.00 0.00 0.00 99 1014.8
20260510031655 64 206 0.0 0.0 0.00 0.00 0.00 99 1014.8
20260510031152 64 206 0.0 0.0 0.00 0.00 0.00 99 1015.0
20260510030646 64 206 0.0 0.0 0.00 0.00 0.00 99 1014.8
20260510030144 64 207 0.0 0.0 0.00 0.00 0.00 99 1014.9
20260510025641 64 206 0.0 0.0 0.00 0.00 0.00 99 1015.0
20260510025139 64 206 0.0 0.0 0.00 0.00 0.00 99 1014.9
20260510024635 64 206 0.0 0.0 0.00 0.00 0.00 99 1015.0
20260510024132 64 207 0.0 0.0 0.00 0.00 0.00 99 1014.9
20260510023628 64 207 0.0 0.0 0.00 0.00 0.00 99 1014.9
20260510023125 64 207 0.0 0.0 0.00 0.00 0.00 99 1014.8
20260510022625 64 207 0.0 0.0 0.00 0.00 0.00 99 1014.9
20260510022120 64 207 0.0 0.0 0.00 0.00 0.00 99 1014.8
20260510021616 64 207 0.0 0.0 0.00 0.00 0.00 99 1014.8
20260510021114 65 206 0.0 0.0 0.00 0.00 0.00 99 1014.6
20260510020614 65 207 0.0 0.0 0.00 0.00 0.00 99 1014.7
20260510020109 65 206 0.0 0.0 0.00 0.00 0.00 99 1014.6
20260510015606 65 206 0.0 0.0 0.00 0.00 0.00 98 1014.6
20260510015102 65 206 0.0 0.0 0.00 0.00 0.00 98 1014.6
20260510014558 65 206 0.0 0.0 0.00 0.00 0.00 98 1014.7
20260510014055 65 207 0.0 0.0 0.00 0.00 0.00 98 1014.8
20260510013550 66 207 0.0 0.0 0.00 0.00 0.00 98 1014.6
20260510013046 66 207 0.0 0.0 0.00 0.00 0.00 98 1014.2
20260510012545 66 207 0.0 0.0 0.00 0.00 0.00 97 1014.5
20260510012042 66 207 0.0 0.0 0.00 0.00 0.00 97 1014.6
20260510011542 66 207 0.0 0.0 0.00 0.00 0.00 97 1014.4
20260510011038 66 207 0.0 0.0 0.00 0.00 0.00 97 1014.3
20260510010535 67 207 0.0 0.0 0.00 0.00 0.00 97 1014.2
20260510010032 67 207 0.0 0.0 0.00 0.00 0.00 96 1014.4
20260510005527 67 207 0.0 0.0 0.00 0.00 0.00 96 1014.2
20260510005025 67 207 0.0 0.0 0.00 0.00 0.00 96 1013.9
20260510004523 68 206 0.0 0.0 0.00 0.00 0.00 95 1013.8
20260510004021 68 206 0.0 0.0 0.00 0.00 0.00 95 1013.7
20260510003517 68 207 0.0 0.0 0.00 0.00 0.00 94 1013.6
20260510003012 68 207 0.0 0.0 0.00 0.00 0.00 94 1013.6
20260510002508 68 207 0.0 0.0 0.00 0.00 0.00 94 1013.4
20260510002005 69 207 0.0 0.0 0.00 0.00 0.00 93 1013.3
20260510001503 69 229 0.0 0.0 0.00 0.00 0.00 93 1013.4
20260510001001 70 229 0.0 0.0 0.00 0.00 0.00 93 1013.3
20260510000456 70 230 0.0 0.0 0.00 0.00 0.00 93 1013.4
20260509235952 70 230 0.0 0.0 0.00 0.00 0.00 92 1013.1
20260509235449 71 229 0.0 0.0 0.00 0.00 0.00 91 1013.3
20260509234945 71 229 0.0 0.0 0.00 0.00 0.00 91 1013.1
20260509234442 71 228 0.0 0.0 0.00 0.00 0.00 90 1013.1
20260509233940 71 225 0.0 0.0 0.00 0.00 0.00 90 1013.0
20260509233438 71 225 0.0 0.0 0.00 0.00 0.00 90 1012.8
20260509232933 72 225 0.0 0.0 0.00 0.00 0.00 90 1012.8
20260509232432 72 233 0.0 0.0 0.00 0.00 0.00 89 1012.9
20260509231927 72 237 0.0 0.0 0.00 0.00 0.00 88 1012.7
20260509231424 72 211 0.0 0.0 0.00 0.00 0.00 88 1012.9
20260509230922 73 211 0.0 0.0 0.00 0.00 0.00 87 1012.8
20260509230419 73 211 0.0 0.0 0.00 0.00 0.00 88 1012.7
20260509225915 73 232 0.0 0.0 0.00 0.00 0.00 87 1012.6
20260509225411 73 233 0.0 0.0 0.00 0.00 0.00 87 1012.7
20260509224907 73 242 0.0 0.0 0.00 0.00 0.00 87 1012.8
20260509224403 73 241 0.0 0.0 0.00 0.00 0.00 87 1012.7
20260509223901 74 225 0.0 0.0 0.00 0.00 0.00 89 1012.7
20260509223357 74 228 0.0 0.0 0.00 0.00 0.00 88 1012.5
20260509222854 74 233 0.0 0.0 0.00 0.00 0.00 88 1012.6
20260509222349 75 233 0.0 0.0 0.00 0.00 0.00 87 1012.5
20260509221844 75 114 0.0 0.0 0.00 0.00 0.00 85 1012.2
20260509221342 75 233 0.0 0.0 0.00 0.00 0.00 86 1012.4
20260509220837 75 231 0.0 0.0 0.00 0.00 0.00 84 1012.4
20260509220333 75 224 0.0 0.0 0.00 0.00 0.00 83 1012.5
20260509215829 75 246 0.0 0.0 0.00 0.00 0.00 83 1012.2
20260509215326 75 246 0.0 0.0 0.00 0.00 0.00 82 1012.4
20260509214823 75 244 0.0 0.0 0.00 0.00 0.00 83 1012.4
20260509214320 75 241 0.0 0.0 0.00 0.00 0.00 84 1012.1
20260509213817 75 295 0.0 0.0 0.00 0.00 0.00 83 1012.2
20260509213312 75 233 0.0 0.0 0.00 0.00 0.00 83 1012.4
20260509212810 75 235 0.0 0.0 0.00 0.00 0.00 85 1012.3
20260509212308 75 222 0.0 0.0 0.00 0.00 0.00 85 1012.6
20260509211803 75 226 0.0 0.0 0.00 0.00 0.00 84 1012.5
20260509211259 76 227 0.0 0.0 0.00 0.00 0.00 81 1012.5
20260509210756 75 228 0.0 0.0 0.00 0.00 0.00 83 1012.6
20260509210254 76 133 0.0 0.0 0.00 0.00 0.00 82 1012.4
20260509205753 76 228 0.0 0.0 0.00 0.00 0.00 82 1012.6
20260509205248 76 58 0.0 0.0 0.00 0.00 0.00 79 1012.4
20260509204744 77 232 0.0 0.0 0.00 0.00 0.00 79 1012.5
20260509204241 77 203 0.0 0.0 0.00 0.00 0.00 78 1012.9
20260509203737 77 262 0.0 0.0 0.00 0.00 0.00 78 1012.6
20260509203235 78 234 0.0 0.0 0.00 0.00 0.00 77 1012.7
20260509202730 78 197 0.0 0.0 0.00 0.00 0.00 77 1012.8
20260509202227 76 224 0.0 0.0 0.00 0.00 0.00 80 1012.9
20260509201721 75 227 0.0 0.0 0.00 0.00 0.00 81 1013.1
20260509201218 75 190 0.0 0.0 0.00 0.00 0.00 79 1013.1
20260509200714 76 241 0.0 0.0 0.00 0.00 0.00 83 1013.1
20260509200209 75 299 0.0 0.0 0.00 0.00 0.00 77 1013.1
20260509195705 75 158 0.0 0.0 0.00 0.00 0.00 81 1013.1
20260509195201 75 48 0.0 0.0 0.00 0.00 0.00 79 1013.3
20260509194655 76 237 0.0 0.0 0.00 0.00 0.00 78 1013.5
20260509194152 76 233 0.0 0.0 0.00 0.00 0.00 79 1013.5
20260509193648 75 232 0.0 0.0 0.00 0.00 0.00 80 1013.4
20260509193143 76 265 0.0 0.0 0.00 0.00 0.00 77 1013.3
20260509192640 76 218 0.0 0.0 0.00 0.00 0.00 78 1013.6
20260509192136 75 150 0.0 0.0 0.00 0.00 0.00 83 1013.8